User: anonymous   Login
Location: Unspecified
(0.0000°N, 0.0000°E)
Time: 03:46:52
(UTC+00:00)
Language:

NOAA 17 - Orbit

View from above orbital plane
View from above orbital plane
View from above satellite
View from above satellite

Ground track
Ground track

The orbit data is extracted from the following two-line orbital elements,

1 27453U 02032A   14327.46719816  .00000162  00000-0  86915-4 0  8190
2 27453 098.3241 318.8684 0012761 070.1080 290.1474 14.24819429645366
Epoch (UTC): 23 November 2014 11:12:45
Eccentricity: 0.0012761
inclination: 98.3241°
perigee height: 800 km
apogee height: 818 km
right ascension of ascending node: 318.8684°
argument of perigee: 70.1080°
revolutions per day: 14.24819429
mean anomaly at epoch: 290.1474°
orbit number at epoch: 64536

The dashed part of the orbit path shows where the satellite is in the earth's shadow,  

DLR